Regional Weather Roundup
Issued by NWS Albany, NY

Home | Current Version | Previous Version | Text Only | Print | Product List | Glossary On
Versions: 1 2 3 4 5 6 7 8 9 10 11 12 13 14 15 16 17 18 19 20 21 22 23 24 25 26 27 28
000
ASUS41 KALY 200810
RWRALY

NEW YORK STATE HOURLY WEATHER ROUNDUP
NATIONAL WEATHER SERVICE ALBANY NY
300 AM EST FRI JAN 20 2017

NOTE: "FAIR" INDICATES FEW OR NO CLOUDS BELOW 12,000 FEET WITH NO
SIGNIFICANT WEATHER AND/OR NO OBSTRUCTIONS TO VISIBILITY.

NYZ032-033-038>043-046>054-057>066-NYZ062>081-082-084-200900-
EAST


CITY           SKY/WX    TMP DP  RH WIND       PRES   REMARKS
ALBANY         CLOUDY    34  32  92 CALM      30.03R
GLENS FALLS    CLOUDY    34  31  88 CALM      30.00F
POUGHKEEPSIE   CLOUDY    37  29  72 CALM      30.03S
NEWBURGH       CLOUDY    37  32  81 NE6       30.03S WCI  33
MONTGOMERY     CLOUDY    37  32  82 CALM      30.01S
WHITE PLAINS   CLOUDY    39  28  64 CALM      30.02F
ISLIP          CLOUDY    40  32  73 N5        30.02F
NEW YORK CITY  CLOUDY    42  32  67 NE6       30.03S
CENTRAL PARK   CLOUDY    41  31  67 E10       30.05S
$$

NYZ005>009-017-018-044>046-055-056-200900-
CENTRAL


CITY           SKY/WX    TMP DP  RH WIND       PRES   REMARKS
FULTON         CLOUDY    35  32  88 CALM      29.98F
SYRACUSE       CLOUDY    35  31  85 SE5       29.99F WCI  31
ROME           CLOUDY    32  32 100 CALM      30.01F FOG
ELMIRA         CLOUDY    34  31  88 CALM      29.96S
BINGHAMTON     CLOUDY    31  30  96 SE3       29.95S
MONTICELLO     CLOUDY    34  30  86 CALM      29.99F
$$

NYZ026>034-041>043-087-200900-
NORTH


CITY           SKY/WX    TMP DP  RH WIND       PRES   REMARKS
WATERTOWN      CLOUDY    35  34  96 CALM      29.99F
FORT DRUM      NOT AVBL
OGDENSBURG     MOCLDY    34  34  99 CALM      29.99F FOG
MASSENA        CLOUDY    33  32  96 CALM      30.02S
SARANAC LAKE   CLOUDY    30  28  92 W3        29.94R
PLATTSBURGH    CLOUDY    33  30  88 SW3       30.00S
$$

NYZ001>004-010>016-019>021-085-200900-
WEST


CITY           SKY/WX    TMP DP  RH WIND       PRES   REMARKS
NIAGARA FALLS  CLOUDY    35  32  88 E3        29.92S FOG
BUFFALO        CLOUDY    35  33  92 E3        29.91F FOG
DUNKIRK        PTCLDY    33  32  96 E5        29.90F WCI  29
JAMESTOWN      CLOUDY    30  28  93 S7        29.86F VSB<1/4 WCI  23
WELLSVILLE     FOG       33  31  92 SE7       29.90F VSB 1/4 WCI  27
ROCHESTER      CLOUDY    36  32  85 SE7       29.95F WCI  30
PENN YAN       CLOUDY    34  30  85 CALM      29.95F
$$

             KEY
       WCI = WIND CHILL INDEX
       VSB = VISIBILITY
       HX  = HEAT INDEX
$$




USA.gov is the U.S. government's official web portal to all federal, state and local government web resources and services.